Olathe, KS

2:39 AM CST on February 25, 2017 (GMT -0600)
Johnson County Executive

Weather History for KOJC - September, 2013

Change the Weather History Date:

Wednesday, September 25, 2013

  Actual Average Record
Temperature  
Mean Temperature 66 °F 65 °F  
Max Temperature 76 °F 75 °F 90 °F (1956)
Min Temperature 56 °F 55 °F 40 °F (1950)
Degree Days  
Heating Degree Days 0 3  
Month to date heating degree days 13 27  
Since 1 July heating degree days 13 28  
Cooling Degree Days 1 3  
Month to date cooling degree days 199 143  
Year to date cooling degree days 1312 1308  
Growing Degree Days 15 (Base 50)    
Moisture  
Dew Point 58 °F    
Average Humidity 80    
Maximum Humidity 100    
Minimum Humidity 60    
Precipitation  
Precipitation 0.00 in 0.13 in 2.22 in (1973)
Month to date precipitation 2.69 3.89  
Year to date precipitation 29.20 31.85  
Sea Level Pressure  
Sea Level Pressure 29.86 in    
Wind  
Wind Speed 5 mph (North)    
Max Wind Speed 10 mph    
Max Gust Speed 14 mph    
Visibility 6 miles    
Events Fog    
T = Trace of Precipitation, MM = Missing Value Source: NWS Daily Summary

Daily Weather History Graph

Daily Weather History Graph

Search for Another Location

Airport or City:

Trip Planner

Search our weather history database for the weather conditions in past years. The results will help you decide how hot, cold, wet, or windy it might be!

Date:

Astronomy

Sep. 25, 2013 Rise Set
Actual Time 7:09 AM CDT 7:10 PM CDT
Civil Twilight 6:43 AM CDT 7:37 PM CDT
Nautical Twilight 6:12 AM CDT 8:08 PM CDT
Astronomical Twilight 5:40 AM CDT 8:39 PM CDT
Moon 11:20 PM CDT 1:12 PM CDT
Length of Visible Light 12h 54m
Length of Day
12h 01m
Waning Gibbous, 64% of the Moon is Illuminated
Sep 25
Waning Gibbous
Sep 26
Last Quarter
Oct 4
New
Oct 11
First Quarter
Oct 18
Full

Hourly Weather History & Observations

Time (CDT) Temp. Dew Point Humidity Pressure Visibility Wind Dir Wind Speed Gust Speed Precip Events Conditions
12:53 AM 60.1 °F 57.0 °F 90% 29.84 in 10.0 mi NW 6.9 mph - N/A   Clear
1:53 AM 59.0 °F 55.9 °F 90% 29.85 in 10.0 mi NW 4.6 mph - N/A   Clear
2:53 AM 57.9 °F 55.9 °F 93% 29.83 in 9.0 mi NNW 3.5 mph - N/A   Clear
3:53 AM 59.0 °F 57.0 °F 93% 29.84 in 8.0 mi NNW 4.6 mph - N/A   Clear
4:53 AM 57.9 °F 55.9 °F 93% 29.84 in 5.0 mi NNW 4.6 mph - N/A   Clear
5:53 AM 57.0 °F 55.0 °F 93% 29.85 in 4.0 mi NNW 3.5 mph - N/A   Clear
6:44 AM 57.2 °F 55.4 °F 94% 29.88 in 3.0 mi North 3.5 mph - N/A   Scattered Clouds
6:47 AM 55.4 °F 55.4 °F 100% 29.88 in 3.0 mi North 3.5 mph - N/A   Mostly Cloudy
6:53 AM 57.0 °F 55.9 °F 96% 29.86 in 3.0 mi North 3.5 mph - N/A   Mostly Cloudy
7:21 AM 57.2 °F 55.4 °F 94% 29.89 in 2.0 mi WNW 3.5 mph - N/A   Overcast
7:34 AM 57.2 °F 55.4 °F 94% 29.89 in 1.5 mi NW 3.5 mph - N/A   Mostly Cloudy
7:38 AM 57.2 °F 55.4 °F 94% 29.89 in 0.5 mi NW 3.5 mph - N/A Fog Fog
7:53 AM 57.0 °F 55.9 °F 96% 29.88 in 0.5 mi WNW 4.6 mph - N/A Fog Fog
8:53 AM 57.9 °F 57.9 °F 100% 29.89 in 0.2 mi Calm Calm - N/A Fog Fog
9:41 AM 59.0 °F 59.0 °F 100% 29.90 in 1.0 mi Calm Calm - N/A   Overcast
9:53 AM 60.1 °F 59.0 °F 96% 29.89 in 2.0 mi Calm Calm - N/A   Overcast
10:06 AM 60.8 °F 60.8 °F 100% 29.90 in 3.0 mi Calm Calm - N/A   Overcast
10:19 AM 62.6 °F 60.8 °F 94% 29.91 in 4.0 mi Calm Calm - N/A   Mostly Cloudy
10:53 AM 66.0 °F 61.0 °F 84% 29.89 in 5.0 mi Calm Calm - N/A   Haze
11:53 AM 69.1 °F 61.0 °F 75% 29.89 in 7.0 mi Variable 3.5 mph - N/A   Scattered Clouds
12:53 PM 73.0 °F 61.0 °F 66% 29.86 in 10.0 mi Variable 3.5 mph - N/A   Scattered Clouds
1:53 PM 73.9 °F 61.0 °F 64% 29.84 in 10.0 mi SE 5.8 mph - N/A   Clear
2:53 PM 75.0 °F 60.1 °F 60% 29.82 in 10.0 mi Variable 5.8 mph - N/A   Partly Cloudy
3:53 PM 75.0 °F 62.1 °F 64% 29.82 in 10.0 mi South 5.8 mph - N/A   Partly Cloudy
4:53 PM 73.9 °F 62.1 °F 66% 29.82 in 10.0 mi SSE 9.2 mph - N/A   Clear
5:53 PM 73.0 °F 61.0 °F 66% 29.82 in 10.0 mi SE 9.2 mph - N/A   Clear
6:53 PM 71.1 °F 61.0 °F 70% 29.82 in 10.0 mi SE 8.1 mph - N/A   Clear
7:53 PM 68.0 °F 60.1 °F 76% 29.81 in 10.0 mi ESE 6.9 mph - N/A   Clear
8:53 PM 64.9 °F 60.1 °F 84% 29.82 in 10.0 mi SE 4.6 mph - N/A   Clear
9:53 PM 64.0 °F 59.0 °F 84% 29.82 in 10.0 mi SSE 5.8 mph - N/A   Clear
10:53 PM 63.0 °F 59.0 °F 87% 29.83 in 10.0 mi SSE 5.8 mph - N/A   Clear
11:53 PM 62.1 °F 57.9 °F 86% 29.83 in 10.0 mi SE 4.6 mph - N/A   Clear